Year,Month,Day,Hour,Minute,Value (Times are PST for windgust in km/hr)
2010,06,02,00,00,4.80
2010,06,02,00,01,4.80
2010,06,02,00,02,4.80
2010,06,02,00,03,3.20
2010,06,02,00,04,3.20
2010,06,02,00,05,4.80
2010,06,02,00,06,4.80
2010,06,02,00,07,4.80
2010,06,02,00,08,4.80
2010,06,02,00,09,8.10
2010,06,02,00,10,6.40
2010,06,02,00,11,4.80
2010,06,02,00,12,1.60
2010,06,02,00,13,3.20
2010,06,02,00,14,6.40
2010,06,02,00,15,3.20
2010,06,02,00,16,3.20
2010,06,02,00,17,1.60
2010,06,02,00,18,6.40
2010,06,02,00,19,1.60
2010,06,02,00,20,4.80
2010,06,02,00,21,1.60
2010,06,02,00,22,8.10
2010,06,02,00,23,3.20
2010,06,02,00,24,1.60
2010,06,02,00,25,4.80
2010,06,02,00,26,4.80
2010,06,02,00,27,3.20
2010,06,02,00,28,6.40
2010,06,02,00,29,4.80
2010,06,02,00,30,4.80
2010,06,02,00,31,6.40
2010,06,02,00,32,4.80
2010,06,02,00,33,3.20
2010,06,02,00,34,4.80
2010,06,02,00,35,3.20
2010,06,02,00,36,3.20
2010,06,02,00,37,3.20
2010,06,02,00,38,6.40
2010,06,02,00,39,6.40
2010,06,02,00,40,3.20
2010,06,02,00,41,1.60
2010,06,02,00,42,1.60
2010,06,02,00,43,1.60
2010,06,02,00,44,1.60
2010,06,02,00,45,3.20
2010,06,02,00,46,6.40
2010,06,02,00,47,4.80
2010,06,02,00,48,3.20
2010,06,02,00,49,1.60
2010,06,02,00,50,1.60
2010,06,02,00,52,3.20
2010,06,02,00,53,1.60
2010,06,02,00,54,1.60
2010,06,02,00,55,1.60
2010,06,02,00,57,3.20
2010,06,02,00,58,3.20
2010,06,02,01,01,3.20
2010,06,02,01,04,1.60
2010,06,02,01,05,1.60
2010,06,02,01,07,1.60
2010,06,02,01,08,3.20
2010,06,02,01,09,4.80
2010,06,02,01,10,4.80
2010,06,02,01,11,3.20
2010,06,02,01,12,3.20
2010,06,02,01,13,3.20
2010,06,02,01,14,3.20
2010,06,02,01,15,3.20
2010,06,02,01,17,1.60
2010,06,02,01,18,1.60
2010,06,02,01,19,1.60
2010,06,02,01,20,1.60
2010,06,02,01,21,1.60
2010,06,02,01,22,3.20
2010,06,02,01,23,4.80
2010,06,02,01,24,3.20
2010,06,02,01,25,4.80
2010,06,02,01,26,1.60
2010,06,02,01,27,1.60
2010,06,02,01,28,1.60
2010,06,02,01,29,1.60
2010,06,02,01,30,3.20
2010,06,02,01,31,1.60
2010,06,02,01,32,3.20
2010,06,02,01,33,4.80
2010,06,02,01,34,3.20
2010,06,02,01,35,3.20
2010,06,02,01,36,6.40
2010,06,02,01,37,4.80
2010,06,02,01,38,4.80
2010,06,02,01,39,3.20
2010,06,02,01,40,3.20
2010,06,02,01,41,3.20
2010,06,02,01,42,6.40
2010,06,02,01,43,6.40
2010,06,02,01,44,4.80
2010,06,02,01,45,3.20
2010,06,02,01,47,1.60
2010,06,02,01,48,1.60
2010,06,02,01,49,3.20
2010,06,02,01,50,3.20
2010,06,02,01,51,3.20
2010,06,02,01,52,4.80
2010,06,02,01,53,3.20
2010,06,02,01,54,3.20
2010,06,02,01,55,3.20
2010,06,02,01,56,1.60
2010,06,02,01,57,3.20
2010,06,02,01,58,3.20
2010,06,02,01,59,4.80
2010,06,02,02,00,4.80
2010,06,02,02,01,4.80
2010,06,02,02,02,3.20
2010,06,02,02,03,3.20
2010,06,02,02,04,4.80
2010,06,02,02,05,3.20
2010,06,02,02,06,3.20
2010,06,02,02,07,3.20
2010,06,02,02,08,4.80
2010,06,02,02,09,1.60
2010,06,02,02,10,3.20
2010,06,02,02,11,4.80
2010,06,02,02,12,8.10
2010,06,02,02,13,4.80
2010,06,02,02,14,1.60
2010,06,02,02,15,1.60
2010,06,02,02,16,6.40
2010,06,02,02,17,4.80
2010,06,02,02,18,6.40
2010,06,02,02,19,4.80
2010,06,02,02,20,4.80
2010,06,02,02,21,3.20
2010,06,02,02,22,4.80
2010,06,02,02,23,3.20
2010,06,02,02,24,3.20
2010,06,02,02,25,3.20
2010,06,02,02,26,1.60
2010,06,02,02,27,1.60
2010,06,02,02,28,1.60
2010,06,02,02,29,4.80
2010,06,02,02,30,1.60
2010,06,02,02,31,4.80
2010,06,02,02,32,4.80
2010,06,02,02,33,6.40
2010,06,02,02,34,4.80
2010,06,02,02,35,6.40
2010,06,02,02,36,3.20
2010,06,02,02,37,1.60
2010,06,02,02,38,4.80
2010,06,02,02,39,3.20
2010,06,02,02,40,3.20
2010,06,02,02,41,6.40
2010,06,02,02,42,6.40
2010,06,02,02,43,1.60
2010,06,02,02,45,1.60
2010,06,02,02,46,6.40
2010,06,02,02,47,4.80
2010,06,02,02,48,4.80
2010,06,02,02,49,4.80
2010,06,02,02,50,1.60
2010,06,02,02,51,4.80
2010,06,02,02,52,6.40
2010,06,02,02,53,4.80
2010,06,02,02,54,3.20
2010,06,02,02,55,3.20
2010,06,02,02,56,1.60
2010,06,02,02,57,1.60
2010,06,02,02,58,1.60
2010,06,02,02,59,1.60
2010,06,02,03,00,1.60
2010,06,02,03,02,1.60
2010,06,02,03,03,1.60
2010,06,02,03,05,1.60
2010,06,02,03,06,1.60
2010,06,02,03,08,1.60
2010,06,02,03,09,1.60
2010,06,02,03,10,1.60
2010,06,02,03,12,1.60
2010,06,02,03,13,1.60
2010,06,02,03,15,1.60
2010,06,02,03,16,1.60
2010,06,02,03,17,3.20
2010,06,02,03,18,4.80
2010,06,02,03,19,4.80
2010,06,02,03,20,1.60
2010,06,02,03,22,1.60
2010,06,02,03,23,3.20
2010,06,02,03,24,3.20
2010,06,02,03,25,4.80
2010,06,02,03,26,4.80
2010,06,02,03,27,1.60
2010,06,02,03,28,1.60
2010,06,02,03,30,1.60
2010,06,02,03,31,1.60
2010,06,02,03,32,1.60
2010,06,02,03,33,1.60
2010,06,02,03,34,1.60
2010,06,02,03,35,1.60
2010,06,02,03,37,1.60
2010,06,02,03,38,3.20
2010,06,02,03,39,4.80
2010,06,02,03,40,6.40
2010,06,02,03,41,3.20
2010,06,02,03,42,1.60
2010,06,02,03,43,3.20
2010,06,02,03,44,8.10
2010,06,02,03,45,6.40
2010,06,02,03,46,3.20
2010,06,02,03,47,4.80
2010,06,02,03,48,1.60
2010,06,02,03,50,3.20
2010,06,02,03,51,3.20
2010,06,02,03,52,3.20
2010,06,02,03,53,4.80
2010,06,02,03,54,4.80
2010,06,02,03,55,3.20
2010,06,02,03,56,3.20
2010,06,02,03,57,3.20
2010,06,02,03,59,3.20
2010,06,02,04,00,1.60
2010,06,02,04,01,1.60
2010,06,02,04,02,1.60
2010,06,02,04,04,1.60
2010,06,02,04,05,1.60
2010,06,02,04,06,1.60
2010,06,02,04,07,4.80
2010,06,02,04,08,3.20
2010,06,02,04,09,1.60
2010,06,02,04,10,1.60
2010,06,02,04,11,1.60
2010,06,02,04,15,1.60
2010,06,02,04,16,1.60
2010,06,02,04,17,1.60
2010,06,02,04,21,1.60
2010,06,02,04,22,1.60
2010,06,02,04,23,3.20
2010,06,02,04,24,1.60
2010,06,02,04,25,3.20
2010,06,02,04,27,1.60
2010,06,02,04,28,1.60
2010,06,02,04,29,1.60
2010,06,02,04,32,3.20
2010,06,02,04,33,1.60
2010,06,02,04,35,1.60
2010,06,02,04,36,1.60
2010,06,02,04,37,1.60
2010,06,02,04,43,1.60
2010,06,02,04,48,4.80
2010,06,02,04,49,1.60
2010,06,02,04,50,1.60
2010,06,02,04,53,1.60
2010,06,02,05,01,1.60
2010,06,02,05,02,1.60
2010,06,02,05,03,3.20
2010,06,02,05,04,4.80
2010,06,02,05,05,4.80
2010,06,02,05,06,6.40
2010,06,02,05,07,8.10
2010,06,02,05,08,3.20
2010,06,02,05,09,4.80
2010,06,02,05,10,6.40
2010,06,02,05,11,1.60
2010,06,02,05,12,1.60
2010,06,02,05,13,3.20
2010,06,02,05,15,3.20
2010,06,02,05,16,6.40
2010,06,02,05,17,1.60
2010,06,02,05,18,3.20
2010,06,02,05,19,1.60
2010,06,02,05,20,1.60
2010,06,02,05,21,1.60
2010,06,02,05,22,1.60
2010,06,02,05,23,4.80
2010,06,02,05,27,3.20
2010,06,02,05,28,3.20
2010,06,02,05,29,4.80
2010,06,02,05,31,1.60
2010,06,02,05,32,3.20
2010,06,02,05,33,1.60
2010,06,02,05,34,6.40
2010,06,02,05,35,4.80
2010,06,02,05,36,4.80
2010,06,02,05,37,3.20
2010,06,02,05,38,1.60
2010,06,02,05,39,1.60
2010,06,02,05,41,1.60
2010,06,02,05,45,1.60
2010,06,02,05,46,4.80
2010,06,02,05,47,4.80
2010,06,02,05,48,4.80
2010,06,02,05,49,1.60
2010,06,02,05,50,4.80
2010,06,02,05,51,3.20
2010,06,02,05,52,3.20
2010,06,02,05,53,6.40
2010,06,02,05,54,4.80
2010,06,02,05,55,4.80
2010,06,02,05,56,1.60
2010,06,02,05,57,6.40
2010,06,02,05,58,8.10
2010,06,02,05,59,3.20
2010,06,02,06,00,3.20
2010,06,02,06,01,4.80
2010,06,02,06,02,4.80
2010,06,02,06,03,4.80
2010,06,02,06,04,1.60
2010,06,02,06,05,4.80
2010,06,02,06,06,1.60
2010,06,02,06,07,4.80
2010,06,02,06,08,4.80
2010,06,02,06,09,4.80
2010,06,02,06,10,6.40
2010,06,02,06,11,4.80
2010,06,02,06,12,1.60
2010,06,02,06,13,3.20
2010,06,02,06,14,3.20
2010,06,02,06,15,6.40
2010,06,02,06,16,4.80
2010,06,02,06,17,1.60
2010,06,02,06,18,3.20
2010,06,02,06,19,3.20
2010,06,02,06,20,3.20
2010,06,02,06,21,3.20
2010,06,02,06,22,3.20
2010,06,02,06,23,3.20
2010,06,02,06,24,3.20
2010,06,02,06,25,1.60
2010,06,02,06,26,4.80
2010,06,02,06,27,1.60
2010,06,02,06,28,8.10
2010,06,02,06,29,4.80
2010,06,02,06,30,1.60
2010,06,02,06,31,6.40
2010,06,02,06,33,1.60
2010,06,02,06,34,8.10
2010,06,02,06,35,6.40
2010,06,02,06,36,3.20
2010,06,02,06,37,9.60
2010,06,02,06,38,11.30
2010,06,02,06,39,8.10
2010,06,02,06,40,4.80
2010,06,02,06,41,1.60
2010,06,02,06,42,4.80
2010,06,02,06,43,3.20
2010,06,02,06,44,6.40
2010,06,02,06,45,8.10
2010,06,02,06,46,9.60
2010,06,02,06,47,8.10
2010,06,02,06,48,8.10
2010,06,02,06,49,1.60
2010,06,02,06,50,1.60
2010,06,02,06,51,3.20
2010,06,02,06,52,3.20
2010,06,02,06,53,3.20
2010,06,02,06,55,1.60
2010,06,02,06,56,4.80
2010,06,02,06,57,4.80
2010,06,02,06,58,4.80
2010,06,02,06,59,1.60
2010,06,02,07,00,6.40
2010,06,02,07,01,4.80
2010,06,02,07,02,4.80
2010,06,02,07,03,4.80
2010,06,02,07,04,4.80
2010,06,02,07,05,4.80
2010,06,02,07,06,4.80
2010,06,02,07,07,8.10
2010,06,02,07,08,3.20
2010,06,02,07,09,1.60
2010,06,02,07,10,8.10
2010,06,02,07,11,6.40
2010,06,02,07,12,6.40
2010,06,02,07,13,6.40
2010,06,02,07,14,3.20
2010,06,02,07,15,6.40
2010,06,02,07,16,4.80
2010,06,02,07,17,14.50
2010,06,02,07,18,6.40
2010,06,02,07,19,8.10
2010,06,02,07,20,9.60
2010,06,02,07,21,8.10
2010,06,02,07,22,3.20
2010,06,02,07,23,4.80
2010,06,02,07,24,8.10
2010,06,02,07,25,9.60
2010,06,02,07,26,1.60
2010,06,02,07,27,1.60
2010,06,02,07,28,1.60
2010,06,02,07,29,11.30
2010,06,02,07,30,6.40
2010,06,02,07,31,4.80
2010,06,02,07,32,4.80
2010,06,02,07,33,1.60
2010,06,02,07,34,1.60
2010,06,02,07,35,6.40
2010,06,02,07,36,9.60
2010,06,02,07,37,8.10
2010,06,02,07,38,9.60
2010,06,02,07,39,6.40
2010,06,02,07,40,9.60
2010,06,02,07,41,3.20
2010,06,02,07,42,8.10
2010,06,02,07,43,4.80
2010,06,02,07,44,6.40
2010,06,02,07,45,9.60
2010,06,02,07,46,8.10
2010,06,02,07,47,6.40
2010,06,02,07,48,9.60
2010,06,02,07,49,6.40
2010,06,02,07,50,4.80
2010,06,02,07,51,6.40
2010,06,02,07,52,4.80
2010,06,02,07,53,4.80
2010,06,02,07,54,9.60
2010,06,02,07,55,4.80
2010,06,02,07,56,3.20
2010,06,02,07,57,1.60
2010,06,02,07,58,8.10
2010,06,02,07,59,8.10
2010,06,02,08,00,3.20
2010,06,02,08,01,4.80
2010,06,02,08,02,6.40
2010,06,02,08,03,1.60
2010,06,02,08,04,4.80
2010,06,02,08,05,4.80
2010,06,02,08,06,9.60
2010,06,02,08,07,8.10
2010,06,02,08,08,9.60
2010,06,02,08,09,8.10
2010,06,02,08,10,4.80
2010,06,02,08,11,4.80
2010,06,02,08,12,9.60
2010,06,02,08,13,4.80
2010,06,02,08,14,1.60
2010,06,02,08,15,8.10
2010,06,02,08,16,6.40
2010,06,02,08,17,1.60
2010,06,02,08,18,1.60
2010,06,02,08,19,1.60
2010,06,02,08,20,6.40
2010,06,02,08,21,9.60
2010,06,02,08,22,4.80
2010,06,02,08,23,4.80
2010,06,02,08,24,1.60
2010,06,02,08,25,1.60
2010,06,02,08,26,11.30
2010,06,02,08,27,6.40
2010,06,02,08,28,4.80
2010,06,02,08,29,1.60
2010,06,02,08,30,4.80
2010,06,02,08,31,3.20
2010,06,02,08,32,3.20
2010,06,02,08,33,4.80
2010,06,02,08,34,6.40
2010,06,02,08,35,11.30
2010,06,02,08,36,6.40
2010,06,02,08,37,4.80
2010,06,02,08,38,3.20
2010,06,02,08,39,1.60
2010,06,02,08,40,1.60
2010,06,02,08,41,3.20
2010,06,02,08,42,3.20
2010,06,02,08,43,4.80
2010,06,02,08,44,1.60
2010,06,02,08,45,8.10
2010,06,02,08,46,8.10
2010,06,02,08,47,8.10
2010,06,02,08,48,8.10
2010,06,02,08,49,8.10
2010,06,02,08,50,4.80
2010,06,02,08,51,6.40
2010,06,02,08,52,8.10
2010,06,02,08,53,1.60
2010,06,02,08,54,6.40
2010,06,02,08,55,3.20
2010,06,02,08,56,3.20
2010,06,02,08,57,3.20
2010,06,02,08,58,6.40
2010,06,02,08,59,8.10
2010,06,02,09,00,4.80
2010,06,02,09,01,3.20
2010,06,02,09,02,8.10
2010,06,02,09,03,9.60
2010,06,02,09,04,8.10
2010,06,02,09,05,6.40
2010,06,02,09,06,6.40
2010,06,02,09,07,6.40
2010,06,02,09,08,6.40
2010,06,02,09,09,8.10
2010,06,02,09,10,3.20
2010,06,02,09,11,3.20
2010,06,02,09,12,1.60
2010,06,02,09,13,4.80
2010,06,02,09,14,8.10
2010,06,02,09,15,4.80
2010,06,02,09,16,4.80
2010,06,02,09,17,6.40
2010,06,02,09,18,4.80
2010,06,02,09,19,4.80
2010,06,02,09,20,4.80
2010,06,02,09,21,4.80
2010,06,02,09,22,4.80
2010,06,02,09,23,3.20
2010,06,02,09,24,3.20
2010,06,02,09,25,1.60
2010,06,02,09,26,3.20
2010,06,02,09,27,4.80
2010,06,02,09,28,6.40
2010,06,02,09,29,6.40
2010,06,02,09,30,8.10
2010,06,02,09,31,4.80
2010,06,02,09,32,1.60
2010,06,02,09,33,3.20
2010,06,02,09,34,4.80
2010,06,02,09,35,3.20
2010,06,02,09,36,3.20
2010,06,02,09,37,1.60
2010,06,02,09,38,4.80
2010,06,02,09,40,1.60
2010,06,02,09,41,4.80
2010,06,02,09,42,6.40
2010,06,02,09,43,3.20
2010,06,02,09,44,1.60
2010,06,02,09,45,4.80
2010,06,02,09,46,4.80
2010,06,02,09,47,6.40
2010,06,02,09,48,1.60
2010,06,02,09,49,4.80
2010,06,02,09,50,3.20
2010,06,02,09,51,1.60
2010,06,02,09,52,1.60
2010,06,02,09,53,1.60
2010,06,02,09,54,3.20
2010,06,02,09,55,3.20
2010,06,02,09,56,4.80
2010,06,02,09,57,3.20
2010,06,02,09,58,6.40
2010,06,02,09,59,6.40
2010,06,02,10,00,4.80
2010,06,02,10,01,9.60
2010,06,02,10,02,8.10
2010,06,02,10,03,6.40
2010,06,02,10,04,6.40
2010,06,02,10,05,6.40
2010,06,02,10,06,3.20
2010,06,02,10,07,4.80
2010,06,02,10,08,6.40
2010,06,02,10,09,8.10
2010,06,02,10,10,6.40
2010,06,02,10,11,8.10
2010,06,02,10,12,4.80
2010,06,02,10,13,3.20
2010,06,02,10,14,4.80
2010,06,02,10,15,4.80
2010,06,02,10,16,4.80
2010,06,02,10,17,6.40
2010,06,02,10,18,4.80
2010,06,02,10,19,6.40
2010,06,02,10,20,1.60
2010,06,02,10,21,1.60
2010,06,02,10,22,1.60
2010,06,02,10,23,1.60
2010,06,02,10,24,1.60
2010,06,02,10,25,4.80
2010,06,02,10,26,3.20
2010,06,02,10,27,6.40
2010,06,02,10,28,6.40
2010,06,02,10,29,4.80
2010,06,02,10,30,4.80
2010,06,02,10,31,3.20
2010,06,02,10,32,1.60
2010,06,02,10,33,3.20
2010,06,02,10,34,1.60
2010,06,02,10,35,3.20
2010,06,02,10,36,4.80
2010,06,02,10,37,4.80
2010,06,02,10,38,3.20
2010,06,02,10,39,3.20
2010,06,02,10,40,3.20
2010,06,02,10,41,1.60
2010,06,02,10,42,3.20
2010,06,02,10,43,6.40
2010,06,02,10,44,4.80
2010,06,02,10,45,4.80
2010,06,02,10,46,3.20
2010,06,02,10,47,1.60
2010,06,02,10,48,4.80
2010,06,02,10,49,4.80
2010,06,02,10,50,3.20
2010,06,02,10,51,6.40
2010,06,02,10,52,1.60
2010,06,02,10,53,1.60
2010,06,02,10,54,4.80
2010,06,02,10,55,4.80
2010,06,02,10,56,1.60
2010,06,02,10,57,4.80
2010,06,02,10,58,4.80
2010,06,02,10,59,3.20
2010,06,02,11,00,3.20
2010,06,02,11,01,1.60
2010,06,02,11,02,4.80
2010,06,02,11,03,3.20
2010,06,02,11,04,1.60
2010,06,02,11,05,1.60
2010,06,02,11,06,3.20
2010,06,02,11,07,1.60
2010,06,02,11,08,3.20
2010,06,02,11,09,1.60
2010,06,02,11,10,3.20
2010,06,02,11,11,1.60
2010,06,02,11,12,3.20
2010,06,02,11,13,4.80
2010,06,02,11,14,3.20
2010,06,02,11,15,3.20
2010,06,02,11,16,1.60
2010,06,02,11,17,1.60
2010,06,02,11,18,1.60
2010,06,02,11,19,1.60
2010,06,02,11,20,1.60
2010,06,02,11,21,1.60
2010,06,02,11,22,1.60
2010,06,02,11,27,1.60
2010,06,02,11,28,3.20
2010,06,02,11,30,1.60
2010,06,02,11,31,1.60
2010,06,02,11,32,1.60
2010,06,02,11,33,1.60
2010,06,02,11,35,3.20
2010,06,02,11,36,4.80
2010,06,02,11,37,6.40
2010,06,02,11,38,12.90
2010,06,02,11,39,4.80
2010,06,02,11,40,4.80
2010,06,02,11,41,3.20
2010,06,02,11,42,6.40
2010,06,02,11,43,9.60
2010,06,02,11,44,14.50
2010,06,02,11,45,9.60
2010,06,02,11,46,6.40
2010,06,02,11,47,6.40
2010,06,02,11,48,12.90
2010,06,02,11,49,20.90
2010,06,02,11,50,20.90
2010,06,02,11,51,17.70
2010,06,02,11,52,11.30
2010,06,02,11,53,14.50
2010,06,02,11,54,9.60
2010,06,02,11,55,11.30
2010,06,02,11,56,11.30
2010,06,02,11,57,9.60
2010,06,02,11,58,11.30
2010,06,02,11,59,16.10
2010,06,02,12,00,14.50
2010,06,02,12,01,8.10
2010,06,02,12,02,8.10
2010,06,02,12,03,17.70
2010,06,02,12,04,17.70
2010,06,02,12,05,16.10
2010,06,02,12,06,9.60
2010,06,02,12,07,6.40
2010,06,02,12,08,3.20
2010,06,02,12,09,8.10
2010,06,02,12,10,14.50
2010,06,02,12,11,9.60
2010,06,02,12,12,11.30
2010,06,02,12,13,19.30
2010,06,02,12,14,19.30
2010,06,02,12,15,19.30
2010,06,02,12,16,22.50
2010,06,02,12,17,22.50
2010,06,02,12,18,8.10
2010,06,02,12,19,9.60
2010,06,02,12,20,9.60
2010,06,02,12,21,14.50
2010,06,02,12,22,8.10
2010,06,02,12,23,8.10
2010,06,02,12,24,4.80
2010,06,02,12,25,6.40
2010,06,02,12,26,16.10
2010,06,02,12,27,17.70
2010,06,02,12,28,19.30
2010,06,02,12,29,20.90
2010,06,02,12,30,20.90
2010,06,02,12,31,20.90
2010,06,02,12,32,17.70
2010,06,02,12,33,16.10
2010,06,02,12,34,17.70
2010,06,02,12,35,19.30
2010,06,02,12,36,11.30
2010,06,02,12,37,9.60
2010,06,02,12,38,8.10
2010,06,02,12,39,4.80
2010,06,02,12,40,8.10
2010,06,02,12,41,17.70
2010,06,02,12,42,16.10
2010,06,02,12,43,14.50
2010,06,02,12,44,8.10
2010,06,02,12,45,20.90
2010,06,02,12,46,16.10
2010,06,02,12,47,11.30
2010,06,02,12,48,19.30
2010,06,02,12,49,14.50
2010,06,02,12,50,20.90
2010,06,02,12,51,20.90
2010,06,02,12,52,9.60
2010,06,02,12,53,20.90
2010,06,02,12,54,22.50
2010,06,02,12,55,17.70
2010,06,02,12,56,24.20
2010,06,02,12,57,17.70
2010,06,02,12,58,14.50
2010,06,02,12,59,11.30
2010,06,02,13,00,11.30
2010,06,02,13,01,30.60
2010,06,02,13,02,29.00
2010,06,02,13,03,22.50
2010,06,02,13,04,22.50
2010,06,02,13,05,25.70
2010,06,02,13,06,24.20
2010,06,02,13,07,20.90
2010,06,02,13,08,22.50
2010,06,02,13,09,22.50
2010,06,02,13,10,25.70
2010,06,02,13,11,29.00
2010,06,02,13,12,29.00
2010,06,02,13,13,24.20
2010,06,02,13,14,17.70
2010,06,02,13,15,17.70
2010,06,02,13,16,22.50
2010,06,02,13,17,29.00
2010,06,02,13,18,24.20
2010,06,02,13,19,19.30
2010,06,02,13,20,20.90
2010,06,02,13,21,22.50
2010,06,02,13,22,29.00
2010,06,02,13,23,33.80
2010,06,02,13,24,24.20
2010,06,02,13,25,24.20
2010,06,02,13,26,24.20
2010,06,02,13,27,25.70
2010,06,02,13,28,19.30
2010,06,02,13,29,11.30
2010,06,02,13,30,17.70
2010,06,02,13,31,19.30
2010,06,02,13,32,20.90
2010,06,02,13,33,24.20
2010,06,02,13,34,30.60
2010,06,02,13,35,27.40
2010,06,02,13,36,17.70
2010,06,02,13,37,17.70
2010,06,02,13,38,16.10
2010,06,02,13,39,17.70
2010,06,02,13,40,19.30
2010,06,02,13,41,32.20
2010,06,02,13,42,29.00
2010,06,02,13,43,27.40
2010,06,02,13,44,20.90
2010,06,02,13,45,27.40
2010,06,02,13,46,25.70
2010,06,02,13,47,19.30
2010,06,02,13,48,20.90
2010,06,02,13,49,25.70
2010,06,02,13,50,17.70
2010,06,02,13,51,19.30
2010,06,02,13,52,22.50
2010,06,02,13,53,17.70
2010,06,02,13,54,27.40
2010,06,02,13,55,25.70
2010,06,02,13,56,27.40
2010,06,02,13,57,22.50
2010,06,02,13,58,20.90
2010,06,02,13,59,22.50
2010,06,02,14,00,25.70
2010,06,02,14,01,24.20
2010,06,02,14,02,16.10
2010,06,02,14,03,29.00
2010,06,02,14,04,17.70
2010,06,02,14,05,25.70
2010,06,02,14,06,19.30
2010,06,02,14,07,17.70
2010,06,02,14,08,30.60
2010,06,02,14,09,30.60
2010,06,02,14,10,27.40
2010,06,02,14,11,20.90
2010,06,02,14,12,27.40
2010,06,02,14,13,20.90
2010,06,02,14,14,22.50
2010,06,02,14,15,27.40
2010,06,02,14,16,19.30
2010,06,02,14,17,25.70
2010,06,02,14,18,25.70
2010,06,02,14,19,24.20
2010,06,02,14,20,27.40
2010,06,02,14,21,17.70
2010,06,02,14,22,30.60
2010,06,02,14,23,25.70
2010,06,02,14,24,25.70
2010,06,02,14,25,32.20
2010,06,02,14,26,32.20
2010,06,02,14,27,24.20
2010,06,02,14,28,19.30
2010,06,02,14,29,20.90
2010,06,02,14,30,22.50
2010,06,02,14,31,22.50
2010,06,02,14,32,24.20
2010,06,02,14,33,19.30
2010,06,02,14,34,17.70
2010,06,02,14,35,17.70
2010,06,02,14,36,14.50
2010,06,02,14,37,27.40
2010,06,02,14,38,27.40
2010,06,02,14,39,24.20
2010,06,02,14,40,19.30
2010,06,02,14,41,35.40
2010,06,02,14,42,25.70
2010,06,02,14,43,33.80
2010,06,02,14,44,24.20
2010,06,02,14,45,24.20
2010,06,02,14,46,27.40
2010,06,02,14,47,22.50
2010,06,02,14,48,22.50
2010,06,02,14,49,30.60
2010,06,02,14,50,30.60
2010,06,02,14,51,33.80
2010,06,02,14,52,32.20
2010,06,02,14,53,29.00
2010,06,02,14,54,20.90
2010,06,02,14,55,37.00
2010,06,02,14,56,27.40
2010,06,02,14,57,27.40
2010,06,02,14,58,20.90
2010,06,02,14,59,35.40
2010,06,02,15,00,33.80
2010,06,02,15,01,22.50
2010,06,02,15,02,32.20
2010,06,02,15,03,29.00
2010,06,02,15,04,25.70
2010,06,02,15,05,29.00
2010,06,02,15,06,24.20
2010,06,02,15,07,35.40
2010,06,02,15,08,24.20
2010,06,02,15,09,38.60
2010,06,02,15,10,33.80
2010,06,02,15,11,38.60
2010,06,02,15,12,27.40
2010,06,02,15,13,19.30
2010,06,02,15,14,30.60
2010,06,02,15,15,32.20
2010,06,02,15,16,32.20
2010,06,02,15,17,24.20
2010,06,02,15,18,25.70
2010,06,02,15,19,49.90
2010,06,02,15,20,41.80
2010,06,02,15,21,27.40
2010,06,02,15,22,27.40
2010,06,02,15,23,20.90
2010,06,02,15,24,43.50
2010,06,02,15,25,40.20
2010,06,02,15,26,27.40
2010,06,02,15,27,32.20
2010,06,02,15,28,32.20
2010,06,02,15,29,30.60
2010,06,02,15,30,32.20
2010,06,02,15,31,38.60
2010,06,02,15,32,37.00
2010,06,02,15,33,35.40
2010,06,02,15,34,32.20
2010,06,02,15,35,35.40
2010,06,02,15,36,32.20
2010,06,02,15,37,30.60
2010,06,02,15,38,30.60
2010,06,02,15,39,30.60
2010,06,02,15,40,17.70
2010,06,02,15,41,19.30
2010,06,02,15,42,30.60
2010,06,02,15,43,25.70
2010,06,02,15,44,27.40
2010,06,02,15,45,20.90
2010,06,02,15,46,32.20
2010,06,02,15,47,37.00
2010,06,02,15,48,19.30
2010,06,02,15,49,22.50
2010,06,02,15,50,24.20
2010,06,02,15,51,22.50
2010,06,02,15,52,29.00
2010,06,02,15,53,33.80
2010,06,02,15,54,38.60
2010,06,02,15,55,33.80
2010,06,02,15,56,32.20
2010,06,02,15,57,33.80
2010,06,02,15,58,46.70
2010,06,02,15,59,33.80
2010,06,02,16,00,29.00
2010,06,02,16,01,29.00
2010,06,02,16,02,37.00
2010,06,02,16,03,38.60
2010,06,02,16,04,37.00
2010,06,02,16,05,40.20
2010,06,02,16,06,29.00
2010,06,02,16,07,38.60
2010,06,02,16,08,25.70
2010,06,02,16,09,27.40
2010,06,02,16,10,40.20
2010,06,02,16,11,30.60
2010,06,02,16,12,27.40
2010,06,02,16,13,40.20
2010,06,02,16,14,40.20
2010,06,02,16,15,27.40
2010,06,02,16,16,37.00
2010,06,02,16,17,37.00
2010,06,02,16,18,37.00
2010,06,02,16,19,32.20
2010,06,02,16,20,27.40
2010,06,02,16,21,24.20
2010,06,02,16,22,24.20
2010,06,02,16,23,29.00
2010,06,02,16,24,22.50
2010,06,02,16,25,22.50
2010,06,02,16,26,22.50
2010,06,02,16,27,30.60
2010,06,02,16,28,20.90
2010,06,02,16,29,37.00
2010,06,02,16,30,22.50
2010,06,02,16,31,40.20
2010,06,02,16,32,27.40
2010,06,02,16,33,40.20
2010,06,02,16,34,33.80
2010,06,02,16,35,37.00
2010,06,02,16,36,35.40
2010,06,02,16,37,37.00
2010,06,02,16,38,29.00
2010,06,02,16,39,32.20
2010,06,02,16,40,27.40
2010,06,02,16,41,38.60
2010,06,02,16,42,38.60
2010,06,02,16,43,24.20
2010,06,02,16,44,24.20
2010,06,02,16,45,30.60
2010,06,02,16,46,33.80
2010,06,02,16,47,30.60
2010,06,02,16,48,27.40
2010,06,02,16,49,30.60
2010,06,02,16,50,32.20
2010,06,02,16,51,32.20
2010,06,02,16,52,29.00
2010,06,02,16,53,32.20
2010,06,02,16,54,27.40
2010,06,02,16,55,33.80
2010,06,02,16,56,37.00
2010,06,02,16,57,41.80
2010,06,02,16,58,40.20
2010,06,02,16,59,35.40
2010,06,02,17,00,32.20
2010,06,02,17,01,30.60
2010,06,02,17,02,30.60
2010,06,02,17,03,30.60
2010,06,02,17,04,29.00
2010,06,02,17,05,46.70
2010,06,02,17,06,43.50
2010,06,02,17,07,48.30
2010,06,02,17,08,40.20
2010,06,02,17,09,32.20
2010,06,02,17,10,38.60
2010,06,02,17,11,43.50
2010,06,02,17,12,41.80
2010,06,02,17,13,41.80
2010,06,02,17,14,40.20
2010,06,02,17,15,41.80
2010,06,02,17,16,40.20
2010,06,02,17,17,41.80
2010,06,02,17,18,43.50
2010,06,02,17,19,40.20
2010,06,02,17,20,33.80
2010,06,02,17,21,22.50
2010,06,02,17,22,35.40
2010,06,02,17,23,33.80
2010,06,02,17,24,37.00
2010,06,02,17,25,48.30
2010,06,02,17,26,38.60
2010,06,02,17,27,37.00
2010,06,02,17,28,46.70
2010,06,02,17,29,41.80
2010,06,02,17,30,45.10
2010,06,02,17,31,41.80
2010,06,02,17,32,37.00
2010,06,02,17,33,38.60
2010,06,02,17,34,27.40
2010,06,02,17,35,43.50
2010,06,02,17,36,37.00
2010,06,02,17,37,32.20
2010,06,02,17,38,30.60
2010,06,02,17,39,33.80
2010,06,02,17,40,29.00
2010,06,02,17,41,43.50
2010,06,02,17,42,43.50
2010,06,02,17,43,30.60
2010,06,02,17,44,33.80
2010,06,02,17,45,48.30
2010,06,02,17,46,35.40
2010,06,02,17,47,49.90
2010,06,02,17,48,37.00
2010,06,02,17,49,45.10
2010,06,02,17,50,46.70
2010,06,02,17,51,29.00
2010,06,02,17,52,35.40
2010,06,02,17,53,35.40
2010,06,02,17,54,29.00
2010,06,02,17,55,22.50
2010,06,02,17,56,45.10
2010,06,02,17,57,30.60
2010,06,02,17,58,49.90
2010,06,02,17,59,45.10
2010,06,02,18,00,33.80
2010,06,02,18,01,38.60
2010,06,02,18,02,30.60
2010,06,02,18,03,38.60
2010,06,02,18,04,38.60
2010,06,02,18,05,45.10
2010,06,02,18,06,32.20
2010,06,02,18,07,38.60
2010,06,02,18,08,35.40
2010,06,02,18,09,30.60
2010,06,02,18,10,30.60
2010,06,02,18,11,29.00
2010,06,02,18,12,35.40
2010,06,02,18,13,29.00
2010,06,02,18,14,41.80
2010,06,02,18,15,43.50
2010,06,02,18,16,45.10
2010,06,02,18,17,38.60
2010,06,02,18,18,37.00
2010,06,02,18,19,37.00
2010,06,02,18,20,48.30
2010,06,02,18,21,46.70
2010,06,02,18,22,51.50
2010,06,02,18,23,37.00
2010,06,02,18,24,46.70
2010,06,02,18,25,38.60
2010,06,02,18,26,27.40
2010,06,02,18,27,32.20
2010,06,02,18,28,35.40
2010,06,02,18,29,37.00
2010,06,02,18,30,35.40
2010,06,02,18,31,40.20
2010,06,02,18,32,43.50
2010,06,02,18,33,27.40
2010,06,02,18,34,24.20
2010,06,02,18,35,45.10
2010,06,02,18,36,33.80
2010,06,02,18,37,57.90
2010,06,02,18,38,46.70
2010,06,02,18,39,32.20
2010,06,02,18,40,30.60
2010,06,02,18,41,40.20
2010,06,02,18,42,33.80
2010,06,02,18,43,33.80
2010,06,02,18,44,27.40
2010,06,02,18,45,38.60
2010,06,02,18,46,43.50
2010,06,02,18,47,38.60
2010,06,02,18,48,38.60
2010,06,02,18,49,41.80
2010,06,02,18,50,33.80
2010,06,02,18,51,25.70
2010,06,02,18,52,32.20
2010,06,02,18,53,37.00
2010,06,02,18,54,29.00